Temp
14 14 14 14 14 14 14 14 14 14 14 14 14 14 14 14 14 15 15 14 14 14 14 14 14 15 15 16 16 16 16 16 16 16 16 16 16 16 16 16 16 16 16 16 16 16 16 16 16 16 16 16 16 16 16 16 16 16 16 16 16 15 15 15 15 15 14 14 14 14 14 14 14 13 13 13 13 13 13 13 12 12 12 12 12 12
14 14 14 14 14 14 14 14 14 14 14 14 14 14 14 14 14 15 15 15 15 14 14 14 14 14 15 15 16 16 16 16 16 16 16 16 16 16 16 16 16 16 16 16 16 16 16 16 16 16 16 16 16 16 16 16 16 16 16 16 16 15 15 15 15 15 14 15 15 15 14 14 14 13 13 13 13 13 13 13 12 12 12 12 12 12
13 13 13 13 13 13 13 14 14 14 14 14 14 14 14 14 14 14 15 15 15 15 15 14 14 14 14 14 15 15 16 16 16 16 16 16 16 16 16 16 16 16 16 16 16 16 16 16 16 16 16 16 16 16 16 16 16 16 16 16 16 16 15 15 15 15 15 15 15 15 15 14 14 14 13 13 13 13 13 12 12 12 12 12 12 12
13 13 13 13 13 13 13 14 14 14 14 14 14 14 14 14 14 14 14 15 15 15 15 15 14 14 14 14 14 14 15 15 15 16 16 16 16 16 16 16 16 16 16 16 16 16 16 16 16 16 16 16 16 16 16 16 16 16 16 16 16 16 16 15 15 15 15 15 15 15 15 15 14 14 14 13 13 13 13 12 12 12 12 12 11 11
13 13 13 13 13 13 13 13 13 13 13 13 14 14 14 14 14 14 14 14 15 15 15 15 14 14 14 14 14 14 14 14 15 15 15 16 16 16 16 16 16 16 16 16 16 16 16 16 16 16 16 16 16 16 16 16 16 16 16 16 16 16 16 16 16 15 15 15 15 15 15 15 15 14 14 14 14 13 13 13 12 12 12 11 11 11
12 12 13 13 13 13 13 13 13 13 13 13 13 13 13 14 14 14 14 14 14 15 15 15 14 14 14 14 14 14 14 14 14 14 15 15 15 16 16 16 16 16 16 16 16 16 16 16 16 16 16 16 16 16 16 16 16 16 16 16 16 16 16 16 16 16 15 15 15 15 15 15 15 14 14 14 13 13 13 12 12 12 12 11 11 11
11 12 12 12 12 12 13 13 13 13 13 13 13 13 13 14 14 14 14 14 14 14 15 15 14 14 14 14 15 15 14 14 14 14 14 15 15 15 16 16 16 16 16 16 16 16 16 16 16 16 16 16 16 16 16 16 16 16 16 16 16 16 16 16 16 16 15 15 15 15 15 15 15 14 14 14 13 13 12 12 12 12 12 11 11 11
11 11 12 12 12 12 12 12 12 12 13 13 13 13 13 13 14 14 14 14 14 14 14 14 14 14 14 14 14 15 14 14 14 14 14 14 14 15 15 15 16 16 16 16 16 16 16 16 16 16 16 16 16 16 16 16 16 16 15 15 16 16 16 16 16 16 16 15 15 15 15 15 15 14 14 14 13 13 12 12 12 12 12 12 11 11
10 11 11 11 11 11 12 12 12 12 12 12 12 12 13 13 13 13 14 14 14 14 14 14 14 14 14 14 14 14 15 14 14 14 14 14 14 14 15 15 15 15 15 15 16 16 16 16 16 16 16 16 16 16 16 16 16 15 15 15 15 16 16 16 16 16 16 16 15 15 15 15 15 15 14 14 13 13 13 13 13 12 12 12 11 11
10 10 11 11 11 11 11 11 12 12 12 12 12 12 12 12 13 13 13 13 13 14 14 14 14 14 14 14 14 14 14 14 14 14 14 14 14 14 14 14 14 15 15 15 15 15 16 16 16 16 16 16 16 16 16 16 16 15 15 15 15 16 16 16 16 16 16 16 15 15 15 15 15 15 14 13 13 13 13 13 13 13 12 12 12 11
9 10 10 11 11 11 11 11 11 12 12 12 12 12 12 12 12 12 12 13 13 13 13 13 14 14 14 14 14 14 14 14 14 14 14 14 14 14 14 14 14 14 14 15 15 15 15 15 15 15 16 16 16 16 16 15 15 15 15 15 15 15 16 16 16 16 16 16 15 15 15 15 15 14 14 13 13 13 13 13 13 13 12 12 12 11
9 9 10 10 11 11 11 11 11 11 11 12 12 12 12 12 12 12 12 12 12 12 13 13 13 13 14 14 14 14 14 14 14 14 14 14 14 14 14 14 14 14 14 14 14 15 15 15 15 15 15 15 16 15 15 15 15 15 15 15 15 15 15 15 15 16 16 16 15 15 15 15 15 14 14 13 13 13 13 13 13 13 13 12 12 11
8 9 9 10 10 10 11 11 11 11 11 11 11 11 12 12 12 12 12 12 12 12 12 12 13 13 13 14 14 14 14 14 14 14 14 14 14 14 14 14 14 14 14 14 14 14 14 14 15 15 15 15 15 15 15 15 15 15 15 15 15 15 15 15 15 16 16 15 15 15 15 15 14 14 14 13 13 14 14 13 13 13 12 12 11 11
8 8 9 9 10 10 10 10 10 11 11 11 11 11 12 12 12 12 12 12 12 12 12 12 12 12 13 13 13 14 14 14 14 14 14 14 14 14 14 14 14 14 14 14 14 14 14 14 14 14 15 15 15 15 15 15 14 15 15 15 15 15 15 15 15 15 15 15 14 14 15 15 14 14 14 14 14 14 14 14 13 13 12 12 11 11
8 8 8 8 9 10 10 10 10 10 11 11 11 11 11 12 12 12 12 12 12 12 12 12 12 12 12 12 13 13 13 13 13 13 14 14 14 15 14 14 14 13 13 13 14 14 14 14 14 14 14 14 14 14 14 14 14 14 15 15 15 15 15 15 15 15 15 15 14 14 14 15 14 14 14 14 14 14 14 13 13 13 12 12 11 11
7 7 8 8 9 9 10 10 10 10 10 11 11 11 11 11 11 11 11 12 12 12 12 11 11 11 12 12 12 12 13 13 13 13 13 13 14 15 15 14 14 13 13 13 13 14 14 14 14 14 14 14 14 14 14 14 14 14 15 15 15 15 15 15 15 15 15 15 15 14 14 14 14 14 14 14 14 14 13 13 13 13 12 11 11 10
7 7 8 8 8 9 9 9 10 10 10 10 10 10 11 11 11 11 11 12 12 12 12 12 11 11 11 12 12 12 12 13 13 13 13 13 13 14 14 14 14 13 13 13 13 14 14 14 14 14 14 14 14 14 14 14 14 15 15 15 15 15 15 15 15 15 15 14 14 14 14 14 14 14 14 14 14 14 13 13 13 13 12 11 11 10
6 7 7 7 8 8 8 9 9 9 10 10 10 10 10 11 11 11 11 11 11 11 11 12 12 12 12 11 11 12 12 12 13 13 13 13 13 13 14 14 14 14 13 13 13 13 13 14 14 14 14 14 14 14 15 15 15 15 15 15 14 15 15 15 15 15 14 14 14 14 14 14 14 14 14 14 14 13 13 13 13 13 12 12 11 10
6 6 6 7 7 7 8 8 8 9 9 9 10 10 10 10 10 11 11 11 11 11 11 11 12 12 12 13 13 12 12 12 12 13 12 13 13 13 13 13 13 13 13 13 13 13 13 14 14 14 14 14 14 14 15 15 15 15 15 14 14 14 14 15 15 15 15 14 14 14 14 14 13 13 13 13 13 13 13 13 13 13 12 12 11 11
6 6 6 6 7 7 7 8 8 8 9 9 9 10 10 10 10 10 10 10 11 11 11 11 11 12 12 13 13 12 12 12 12 12 12 12 12 12 13 13 13 13 13 13 14 14 13 13 14 14 14 14 14 14 15 15 15 15 15 14 14 14 14 15 15 15 15 14 14 14 14 14 14 13 13 13 13 13 13 13 13 12 12 12 11 11
5 5 6 6 6 7 7 7 8 8 9 9 9 9 9 9 10 10 10 10 10 11 11 11 11 11 12 12 12 12 12 12 12 12 12 12 12 12 12 12 13 13 13 13 14 14 14 13 13 13 14 14 14 14 14 14 15 15 15 15 14 14 14 15 15 15 15 15 14 14 14 14 14 14 14 13 13 13 13 13 13 12 12 11 11 11
5 5 6 6 6 6 7 7 8 8 8 8 8 8 8 9 9 9 10 10 10 10 10 11 11 11 11 11 12 12 12 11 11 11 12 12 12 12 12 12 12 12 13 13 13 14 14 13 13 13 14 14 14 14 14 14 14 14 15 15 15 14 14 15 15 15 15 15 14 14 14 14 14 14 14 14 14 14 14 13 13 13 12 11 11 11
5 5 6 6 6 6 6 7 8 8 8 8 8 8 8 8 9 9 9 10 10 10 10 10 11 11 11 11 11 11 11 11 11 11 11 12 12 12 11 12 12 12 12 12 13 13 13 13 13 13 14 14 14 14 14 14 14 14 14 14 14 14 14 15 15 15 15 15 14 14 14 14 14 14 14 14 14 14 14 14 13 13 12 12 11 10
5 5 6 6 6 6 6 7 7 8 8 8 8 8 8 8 8 8 9 9 9 10 10 10 10 10 10 11 11 11 11 11 11 11 11 11 12 12 12 11 11 11 12 12 12 12 13 13 13 13 13 14 14 14 14 14 14 14 14 14 14 15 15 15 15 15 15 15 14 14 14 14 14 14 14 14 14 14 13 13 13 13 12 12 11 10
5 5 6 6 6 6 6 7 7 7 8 8 8 8 8 8 8 8 8 8 9 9 9 9 9 10 10 10 10 10 10 10 10 11 11 11 12 12 11 11 11 11 11 11 12 12 12 12 13 13 13 13 13 13 14 14 14 14 14 14 14 14 15 15 15 15 15 14 14 14 14 14 14 14 14 14 13 13 13 13 13 12 12 12 11 10
5 5 5 6 6 6 6 6 7 7 7 8 8 8 8 8 8 8 8 8 8 8 9 9 9 9 9 9 9 10 10 10 10 10 10 11 11 12 11 11 11 11 11 11 11 11 11 12 12 12 12 13 13 13 13 14 14 14 14 14 14 14 14 14 14 14 14 14 14 14 13 13 13 13 13 13 13 13 13 13 12 12 12 11 11 10
5 5 5 5 6 6 6 6 6 7 7 7 7 8 8 8 8 7 7 7 8 8 8 8 9 9 9 9 9 9 9 9 10 10 10 10 11 11 11 11 11 11 11 11 11 11 11 11 11 12 12 12 13 13 13 13 13 14 14 14 14 14 14 14 14 14 14 13 13 13 13 13 13 13 13 13 13 13 13 12 12 11 11 10 10 9
5 5 5 5 6 6 6 6 6 6 7 7 7 7 7 7 7 7 7 7 7 8 8 8 8 9 9 8 8 9 9 9 9 9 9 9 10 10 10 10 11 11 10 10 10 11 11 11 11 11 11 12 12 12 13 13 13 13 13 13 14 14 14 14 13 13 13 13 13 13 13 13 13 13 13 13 13 12 12 12 11 11 10 10 9 9
5 5 5 5 5 6 6 6 6 6 6 7 7 7 6 6 6 6 7 7 7 7 7 8 8 8 9 8 8 8 8 9 9 9 9 9 9 9 9 10 10 10 10 10 10 10 10 10 10 11 11 11 11 12 12 12 13 13 13 13 13 13 13 13 13 13 13 13 13 13 13 13 13 13 12 12 12 12 12 11 11 10 9 9 9 9
5 5 5 5 5 5 6 6 6 6 6 6 6 6 6 6 6 6 6 7 7 7 7 7 8 8 8 8 7 7 8 8 8 9 9 8 8 9 9 9 9 9 9 9 8 7 8 9 9 9 10 10 11 11 11 12 12 12 12 12 13 13 13 13 13 13 13 13 13 13 13 12 12 12 12 12 12 11 11 10 10 9 9 8 8 8
5 5 5 5 5 5 5 5 6 6 6 6 6 6 6 6 6 6 6 6 6 6 7 7 7 7 7 7 6 6 7 8 8 8 8 8 8 8 8 8 8 8 8 9 8 8 7 8 8 9 9 10 10 10 11 11 11 12 12 12 12 12 12 12 13 13 13 13 13 13 12 12 12 12 11 11 11 10 10 9 9 8 8 8 8 7
4 4 4 4 4 5 5 5 5 5 5 5 6 6 6 6 6 6 6 6 6 6 6 6 7 7 7 7 7 7 7 8 8 8 8 8 8 8 8 8 8 7 7 8 9 9 8 7 8 8 9 9 9 10 10 10 11 11 11 12 12 12 12 12 12 13 13 13 13 13 12 12 12 11 11 10 10 10 9 9 8 8 8 7 7 7
4 3 3 3 4 4 4 4 4 5 5 5 5 5 6 6 6 6 5 5 6 6 6 6 6 6 6 6 7 7 7 7 8 8 8 8 8 7 7 8 7 7 7 8 8 9 9 8 7 7 8 9 9 9 10 10 10 11 11 11 11 12 12 12 12 12 12 12 12 12 12 11 11 11 10 10 9 9 9 8 8 8 7 7 7 7
3 3 3 3 3 3 3 3 4 4 4 5 5 5 5 6 6 6 5 5 5 5 6 6 6 6 6 6 6 6 7 7 7 8 8 8 8 7 7 7 7 7 7 7 7 7 8 7 7 7 8 8 8 9 10 10 10 10 10 11 11 11 12 12 12 12 12 11 11 11 10 10 10 10 9 9 9 8 8 8 8 7 7 7 7 6
2 2 3 3 3 3 3 3 3 4 4 4 4 5 5 5 6 6 6 5 5 5 5 5 5 5 6 6 6 6 6 7 7 7 7 7 7 7 7 7 7 6 6 6 6 7 7 6 7 7 7 7 7 8 9 9 10 10 10 10 10 11 11 11 12 11 11 11 10 10 9 9 9 9 8 8 8 8 7 7 7 7 7 7 7 6
2 2 3 3 3 3 3 3 3 3 4 4 4 4 5 5 5 6 6 5 5 5 5 5 5 5 5 5 5 6 6 6 6 7 7 7 7 7 7 6 6 6 6 6 6 7 7 7 6 6 6 6 6 7 7 8 9 9 9 9 10 10 10 11 11 11 10 10 9 9 8 8 8 8 7 7 7 7 7 7 7 7 6 6 6 6
2 2 3 3 3 3 3 3 3 3 3 4 4 4 4 5 5 5 5 5 5 5 5 5 5 5 5 5 5 5 6 6 6 6 6 6 6 6 6 6 6 6 6 6 6 7 7 7 6 5 6 6 5 5 6 7 7 8 8 8 9 9 9 9 10 10 9 9 8 8 8 7 7 7 7 7 7 7 6 6 6 6 6 6 6 6
2 2 2 3 3 3 3 3 3 3 3 4 4 4 4 4 5 5 5 5 5 5 5 5 5 5 5 5 5 5 5 5 5 6 6 6 6 6 6 6 6 6 6 6 6 6 7 7 6 5 6 5 4 5 5 6 6 7 7 7 8 8 8 8 8 8 8 8 7 7 7 7 7 6 6 6 6 6 6 6 6 6 5 5 5 5
2 2 2 3 3 3 3 3 3 3 3 4 4 4 4 4 4 4 4 4 5 5 5 5 5 5 5 5 5 5 5 5 5 5 5 6 6 6 6 5 5 5 6 6 6 6 6 7 6 6 6 5 4 4 5 5 6 6 6 6 6 7 7 7 7 7 7 7 7 6 6 6 6 6 6 6 6 5 5 5 5 5 5 5 5 5
2 2 2 2 3 3 3 3 3 3 3 3 4 4 4 4 4 4 4 4 4 4 5 5 5 5 4 5 5 5 5 5 5 5 5 5 6 5 5 5 5 5 5 5 5 5 6 6 7 7 7 6 5 4 4 5 5 5 5 5 5 5 5 6 6 6 6 6 6 6 6 5 5 5 5 5 5 5 5 5 4 4 5 5 4 4
2 2 2 2 2 3 3 3 3 3 3 3 3 3 4 4 4 4 4 4 4 4 4 4 4 4 4 4 4 5 5 5 5 5 5 5 5 5 5 5 5 5 5 5 5 5 5 6 6 6 6 6 5 5 4 4 4 5 5 5 5 5 5 5 5 5 5 5 5 5 5 5 5 5 5 5 5 5 4 4 4 4 4 4 4 4
2 2 2 2 2 2 2 2 2 2 3 3 3 3 3 3 4 4 3 3 3 4 4 4 4 4 4 4 4 4 4 4 4 4 5 4 4 4 4 4 4 4 4 4 4 5 5 5 5 6 6 5 5 4 4 4 4 5 5 5 4 4 4 5 5 5 5 5 5 5 4 4 4 4 4 4 4 4 4 4 4 4 4 4 4 4
2 2 2 2 2 2 2 2 2 2 2 2 2 3 3 3 3 3 3 3 3 3 4 4 4 4 4 4 3 3 4 4 4 4 4 4 4 4 4 4 4 4 4 4 4 4 5 5 5 5 5 5 5 4 4 4 4 4 4 4 4 4 4 4 4 4 4 4 4 4 4 4 4 4 4 4 3 3 3 3 4 4 4 4 3 3
2 2 2 2 2 2 2 2 2 2 2 2 2 2 3 3 3 3 3 3 3 3 3 3 3 3 3 3 3 3 3 3 3 3 3 3 3 3 3 4 4 4 4 4 4 4 4 4 5 5 4 4 4 4 4 4 4 4 4 4 4 4 4 3 3 4 4 4 4 4 4 3 3 3 3 3 3 3 3 3 3 3 3 3 3 3
2 2 2 2 2 2 2 2 2 2 2 2 2 2 2 2 3 3 3 3 3 3 3 3 3 3 2 2 2 2 2 2 3 3 3 3 3 3 3 3 4 4 4 4 4 4 4 4 4 4 4 4 4 4 4 3 3 3 3 3 4 3 3 3 3 3 3 3 3 3 3 3 3 3 3 3 3 3 3 3 3 3 3 3 3 3
2 2 2 2 1 1 1 2 2 2 2 2 2 2 2 2 2 2 3 3 3 3 3 2 2 2 2 2 2 2 2 2 2 3 3 3 3 3 3 3 3 3 4 4 4 4 4 4 4 3 3 3 4 3 3 3 3 3 3 3 3 3 3 3 3 3 3 3 3 3 3 3 3 3 3 2 2 2 3 3 3 3 3 3 3 3
1 1 1 1 1 1 1 1 1 1 1 1 1 2 2 2 2 2 2 2 2 2 2 2 2 2 2 2 2 1 2 2 2 2 3 3 3 3 3 3 3 3 3 3 3 3 3 3 3 3 3 3 3 3 3 3 3 3 3 3 3 3 3 3 3 3 3 3 3 3 3 3 3 3 2 2 2 2 2 2 3 3 3 3 3 3
1 1 1 1 1 1 1 1 1 1 1 1 1 1 1 1 1 2 2 2 2 2 2 2 1 2 2 1 1 1 1 2 2 2 2 2 3 3 3 3 3 3 3 3 3 3 3 3 3 3 3 3 3 3 3 3 3 3 3 2 2 2 2 2 2 2 3 2 3 3 3 3 3 2 2 2 2 2 2 2 2 2 3 3 3 3
1 1 1 1 1 1 1 1 1 1 1 1 1 1 1 1 1 1 1 2 2 1 1 1 1 1 1 1 1 1 1 1 1 2 2 2 2 3 3 3 3 3 3 3 3 3 3 3 3 3 3 3 3 3 2 2 2 2 2 2 2 2 2 2 2 2 2 2 3 3 3 3 3 2 2 2 1 1 1 1 2 2 2 2 3 3
1 1 1 1 0 0 0 0 0 0 0 0 0 1 1 1 1 1 1 1 1 1 1 1 1 1 1 0 0 0 1 1 1 1 1 2 2 2 2 2 3 2 2 2 2 2 2 2 2 2 2 2 2 2 2 2 2 2 2 2 2 2 2 2 2 2 2 2 3 3 3 3 3 3 2 2 1 1 1 1 1 1 2 2 2 2
0 0 0 0 0 0 0 0 0 0 0 0 0 0 0 0 0 0 1 1 1 1 1 1 1 1 1 0 0 0 0 0 1 1 1 1 2 2 2 2 2 2 2 2 2 2 2 1 1 1 2 2 2 2 2 2 2 2 2 2 2 2 2 2 2 2 2 2 3 3 3 3 2 2 2 1 1 1 1 1 1 1 1 1 2 2
Height
738 739 739 740 741 741 740 741 742 743 743 745 746 748 750 751 751 752 753 753 754 755 756 757 757 757 758 758 760 762 763 765 767 769 771 772 774 775 776 778 780 782 783 785 786 788 789 791 792 793 795 797 798 799 801 803 804 806 807 809 810 812 813 815 816 817 818 820 821 822 823 825 826 827 828 829 831 833 835 837 838 839 840 841 842 843
737 738 738 739 739 739 739 739 740 741 743 744 745 747 749 750 750 751 751 752 753 754 755 756 756 757 757 757 758 759 761 763 764 766 768 769 771 772 774 775 777 779 781 783 784 786 787 788 790 791 793 794 796 797 798 800 802 803 805 807 808 810 812 813 814 815 816 817 819 820 821 823 823 824 826 827 829 831 833 835 836 838 839 840 841 842
736 737 737 737 738 738 738 738 739 740 741 743 744 745 747 748 749 749 750 750 751 752 753 754 755 755 755 756 756 758 759 760 761 763 764 766 768 769 771 773 774 776 778 780 782 783 785 786 788 789 791 792 793 795 796 798 800 801 803 805 806 808 809 811 812 813 814 815 817 818 819 820 821 822 823 825 827 829 831 833 834 836 837 838 839 840
736 735 735 736 736 736 736 737 738 739 740 741 743 743 745 746 747 747 748 748 749 751 751 752 753 753 754 755 755 756 757 758 759 760 761 763 764 766 768 770 772 773 775 778 779 781 782 784 785 787 788 790 791 793 794 796 797 799 801 803 804 805 807 808 810 811 812 813 814 816 817 818 819 820 821 823 824 826 828 830 832 833 835 837 838 839
735 735 734 735 735 735 735 736 737 738 739 740 741 742 742 743 744 745 746 747 748 748 749 750 751 752 752 753 754 755 756 757 758 758 759 760 761 763 765 767 769 771 773 775 777 778 780 782 783 785 786 788 789 790 792 793 795 797 798 800 802 803 804 806 808 809 810 811 812 813 814 815 816 817 818 820 822 823 825 827 829 831 833 835 836 838
734 734 734 734 734 734 734 735 736 737 738 738 738 739 740 740 741 742 743 744 745 746 747 748 749 750 750 750 751 753 754 755 756 757 758 759 759 761 762 764 766 768 770 772 774 776 778 779 781 782 784 785 787 788 789 791 793 794 796 798 799 801 802 804 805 806 808 809 810 811 812 813 813 814 816 818 819 820 822 824 826 828 831 833 834 836
734 733 734 733 733 733 734 734 735 735 736 736 737 737 738 738 739 739 740 741 742 743 744 746 747 748 748 748 749 750 752 753 754 756 757 758 758 759 760 762 763 765 767 769 771 773 775 776 778 779 781 783 784 785 787 788 790 792 793 795 797 798 800 801 803 804 805 806 807 808 809 810 812 813 814 815 817 818 819 821 823 826 828 830 832 834
734 733 733 733 733 733 733 733 733 734 734 735 735 736 736 737 737 737 738 738 739 741 742 743 745 746 746 746 747 748 749 751 752 754 755 756 758 759 759 760 762 763 764 766 768 770 772 773 775 777 778 780 781 783 784 786 788 789 791 793 794 796 797 799 800 801 803 804 805 806 807 808 809 811 812 813 814 815 817 819 821 823 826 828 830 832
734 733 733 733 733 732 732 732 732 733 733 733 734 734 735 735 736 736 737 737 737 738 740 741 742 743 743 744 745 746 746 748 749 752 753 754 756 757 758 759 760 761 763 764 766 768 769 771 773 774 775 777 778 780 781 783 785 787 788 790 792 793 795 796 798 799 801 802 803 804 805 806 807 808 809 810 811 813 815 817 819 821 823 825 827 829
734 733 732 732 732 732 731 731 731 731 732 732 733 733 733 734 734 735 735 735 735 736 737 738 739 740 741 742 743 743 744 745 747 749 751 752 753 755 756 757 758 760 761 763 764 765 767 768 770 771 773 774 776 777 778 780 782 784 786 788 789 791 793 794 795 797 798 800 801 802 803 803 805 806 806 807 808 810 813 815 817 819 821 823 825 827
733 733 732 731 731 731 731 730 730 731 731 732 732 732 732 732 733 733 734 734 734 734 735 735 736 737 738 739 740 741 742 743 745 746 748 750 752 753 754 755 757 758 759 760 762 763 764 766 767 769 770 772 773 774 775 777 779 781 783 785 787 788 790 792 793 794 796 797 798 799 800 801 802 803 803 805 806 808 811 813 815 817 818 820 822 824
733 732 732 731 730 730 730 730 730 730 731 731 731 731 731 731 731 732 732 732 733 733 733 733 734 734 735 736 738 739 740 742 743 744 746 748 749 751 753 754 755 756 757 758 759 761 762 764 765 767 768 769 770 771 773 775 777 779 781 783 784 786 788 789 791 792 793 794 795 796 797 798 799 800 801 803 805 807 809 811 813 814 816 818 819 821
733 732 732 731 730 730 729 729 729 730 730 730 730 730 729 729 730 730 731 731 731 731 732 732 733 733 733 734 735 736 738 739 741 742 743 745 747 748 750 751 753 753 755 756 757 758 760 762 763 764 765 766 768 769 770 772 774 776 778 780 782 784 786 787 788 789 790 792 793 794 795 796 797 798 799 801 803 806 808 809 810 812 813 815 817 818
733 732 731 731 730 730 729 729 729 729 729 729 729 729 729 729 729 730 730 730 730 730 731 732 732 731 732 732 733 733 735 737 739 740 741 742 743 745 747 749 750 751 752 753 755 756 758 759 761 762 763 764 765 767 768 770 772 774 776 778 779 781 783 784 786 787 788 789 790 792 793 793 795 796 798 800 802 803 805 806 808 809 811 813 815 817
733 732 731 731 730 730 729 729 729 729 728 728 729 729 729 729 729 729 729 729 729 729 730 731 731 731 731 730 730 731 733 734 736 738 739 739 740 742 745 747 748 749 750 751 752 753 755 757 758 759 761 762 763 765 767 768 770 771 773 775 777 779 780 782 783 784 786 787 788 789 791 792 793 795 797 798 800 801 803 804 805 807 809 811 813 815
733 733 732 731 730 730 729 729 729 729 728 728 729 729 729 729 728 728 728 728 728 728 729 730 730 730 730 729 729 730 731 732 733 735 736 737 738 739 742 744 746 747 748 749 750 751 753 754 756 757 758 760 761 763 765 766 768 769 771 773 775 776 778 779 781 783 784 786 787 788 789 790 792 793 795 797 798 799 801 802 803 805 807 808 811 813
733 733 732 731 730 729 729 729 729 728 728 728 728 728 728 728 728 728 728 728 728 728 728 728 729 729 728 728 729 729 729 730 731 732 733 734 735 736 739 741 743 744 746 747 748 749 750 752 753 754 756 757 759 761 762 764 766 768 769 771 772 774 776 777 779 780 782 784 785 787 788 789 790 792 793 795 796 798 799 800 801 803 804 806 808 810
733 732 731 731 729 728 728 728 728 728 728 728 727 727 727 727 728 728 727 727 727 727 726 726 726 726 726 727 727 727 728 730 730 730 731 732 732 733 736 738 740 742 743 744 745 747 748 749 750 752 753 755 757 758 760 762 763 765 767 768 770 772 773 775 776 778 779 781 783 785 786 787 788 789 791 793 794 796 797 798 799 801 803 804 806 807
731 731 731 730 729 728 728 727 727 727 727 727 727 726 726 726 726 727 727 726 726 726 725 725 725 724 724 724 724 725 727 728 729 729 729 729 730 731 733 735 737 738 740 741 743 744 746 747 748 749 751 753 754 756 757 759 761 762 764 766 767 769 771 772 773 775 777 779 780 782 783 784 786 787 789 790 792 793 795 796 798 799 800 802 803 805
730 729 729 729 728 728 727 726 726 726 727 726 726 726 725 725 725 725 725 725 725 725 725 724 724 723 723 723 723 724 725 727 728 728 727 728 728 728 730 732 734 735 737 738 740 742 743 745 746 748 749 751 752 753 755 756 758 759 761 763 764 766 768 769 771 772 774 776 778 779 780 782 783 784 786 787 789 791 792 793 795 797 798 799 801 802
729 728 727 728 728 727 726 725 725 725 725 725 725 725 724 724 724 724 724 724 724 724 724 724 723 723 723 723 723 723 724 726 727 727 726 726 726 726 727 729 730 732 733 734 736 739 741 743 744 745 747 748 750 751 752 753 755 756 758 760 761 763 765 766 768 769 771 773 774 776 777 778 780 781 783 784 786 787 789 790 792 794 795 797 798 800
728 726 726 726 726 726 725 724 724 724 724 724 724 723 723 723 723 723 722 723 723 723 723 723 723 723 723 723 723 722 723 724 725 725 726 726 725 724 725 726 728 729 730 731 733 735 738 740 741 743 744 746 747 748 750 751 753 754 755 757 758 760 762 763 765 767 768 770 772 773 774 776 777 778 780 781 783 784 786 787 788 790 792 794 796 797
727 726 725 725 725 724 724 723 723 723 723 723 723 723 722 723 722 722 722 722 722 722 722 722 722 722 722 722 722 722 722 723 723 724 725 724 723 723 723 724 726 727 727 728 730 732 734 736 738 740 741 743 744 746 748 749 750 752 753 755 756 758 759 761 762 764 765 767 769 770 772 773 774 775 777 778 780 781 783 784 785 787 788 790 792 794
726 725 724 724 724 723 723 722 722 722 722 722 722 721 721 721 721 721 721 721 721 721 721 721 721 721 721 721 721 721 721 722 723 724 724 723 722 722 723 723 724 725 725 727 728 730 731 733 735 737 739 740 742 743 745 746 747 749 750 752 753 755 756 758 759 761 763 764 766 767 768 770 771 773 774 775 777 778 779 780 781 783 784 786 788 790
725 724 723 723 723 723 722 721 721 721 721 720 720 720 720 720 720 720 720 720 720 720 721 721 721 720 719 720 720 720 720 721 722 723 723 722 722 722 722 722 723 724 724 726 727 728 730 731 733 735 736 738 739 740 742 743 744 746 748 749 751 752 753 755 756 758 759 761 763 764 765 767 768 769 770 772 773 774 776 777 778 779 781 783 784 787
724 723 723 722 722 722 721 720 720 720 719 719 719 719 719 719 719 719 719 719 719 719 720 720 719 719 719 719 719 719 719 720 720 721 721 722 722 721 721 721 722 723 723 725 726 728 728 730 731 732 734 735 736 738 739 740 742 743 745 746 748 749 750 752 753 755 756 758 759 760 762 763 764 766 767 768 769 770 772 773 775 777 778 780 782 784
723 722 722 721 721 720 720 719 719 718 718 718 718 718 718 718 718 718 718 718 718 719 719 719 718 718 718 718 718 718 718 718 719 719 720 721 721 720 719 720 721 722 723 724 725 726 727 728 729 730 731 732 733 735 736 738 739 741 742 743 745 746 747 748 750 752 753 754 756 757 759 760 762 763 763 764 765 766 768 770 772 774 776 779 782 784
721 721 720 720 719 719 718 718 718 717 717 717 717 717 717 717 717 717 716 716 717 718 718 718 717 717 717 717 716 716 717 717 718 718 719 720 720 719 718 719 720 721 722 723 723 724 725 726 727 728 729 730 731 732 733 734 736 738 739 740 742 743 744 746 747 749 750 752 753 754 756 758 759 760 761 762 763 763 765 767 769 772 775 778 781 783
720 719 719 718 718 718 717 717 717 716 716 715 715 715 715 716 716 715 715 716 717 717 717 716 716 717 716 716 716 716 716 716 716 717 718 719 718 718 717 718 719 720 721 722 722 723 724 724 725 726 727 727 728 729 730 732 733 735 736 738 739 740 741 743 744 746 748 749 751 752 753 755 756 758 759 760 761 762 764 766 768 771 774 776 778 781
719 718 718 717 717 717 716 716 715 715 714 714 714 714 714 714 714 714 715 715 716 716 715 716 716 716 716 716 716 715 714 714 714 716 717 718 717 716 717 718 718 718 719 721 723 723 723 722 723 723 724 724 725 726 727 729 730 732 733 735 736 738 738 740 742 744 745 747 748 750 751 752 753 755 756 758 759 761 763 765 768 770 773 775 777 779
718 717 717 716 716 715 715 715 714 714 713 713 713 713 713 713 713 713 714 714 714 715 715 715 715 715 715 716 715 714 713 712 713 715 716 717 716 715 717 717 717 717 718 720 721 722 721 720 720 721 721 722 723 723 725 726 728 729 730 732 733 735 736 738 740 741 743 744 746 747 748 750 751 753 754 756 757 759 761 763 766 768 770 773 775 777
716 716 715 715 715 714 714 713 713 713 713 712 712 712 711 711 712 712 713 713 713 714 714 714 714 714 714 714 714 713 712 712 712 713 715 715 715 715 716 716 716 717 717 718 718 718 718 718 718 718 719 720 721 722 723 724 725 726 728 729 731 732 734 736 738 739 741 742 743 744 745 747 748 750 752 753 755 757 759 761 763 765 767 769 772 774
715 715 714 714 714 713 713 713 712 712 712 711 711 710 710 710 710 711 711 712 712 713 713 713 713 713 713 713 713 712 712 712 712 713 714 714 714 715 715 715 716 716 717 717 717 717 716 716 716 717 717 718 719 720 721 722 723 724 725 727 728 729 731 733 735 737 738 740 741 742 743 744 746 748 749 751 753 754 756 758 760 762 764 766 768 771
714 714 713 713 713 713 713 712 712 711 711 710 710 710 709 709 709 709 710 710 711 711 711 712 712 712 712 712 712 711 711 711 712 712 713 714 714 714 714 714 714 715 716 716 716 716 716 715 715 715 715 716 717 718 719 720 721 722 723 725 726 727 729 731 733 734 736 737 739 740 742 743 745 747 748 749 751 753 755 757 759 760 762 763 765 768
713 713 713 713 713 712 712 711 711 710 710 709 709 709 708 708 708 708 709 709 710 710 710 710 710 711 711 711 711 711 710 711 711 712 712 713 713 713 713 713 713 714 715 715 715 715 715 714 714 714 714 715 715 716 717 718 719 720 721 723 724 726 727 728 730 731 733 734 736 738 739 742 744 747 748 749 750 752 754 756 758 760 761 762 763 765
712 712 712 712 712 711 711 711 710 709 709 708 708 708 708 707 707 707 708 708 708 708 709 709 709 709 710 710 710 709 709 710 710 711 711 711 712 712 712 711 711 713 713 714 714 714 714 714 714 714 714 714 714 714 715 716 717 718 720 721 723 724 725 726 727 728 730 732 733 735 737 740 743 745 747 749 751 752 754 757 758 760 762 763 764 765
711 710 710 710 710 710 710 710 709 709 708 708 708 707 707 707 706 706 706 707 707 707 707 708 708 708 708 708 708 708 709 709 709 709 709 710 710 710 710 710 710 711 712 712 713 713 713 713 713 714 714 714 713 713 713 714 716 717 718 720 721 723 723 724 725 726 727 728 730 733 735 738 740 743 746 749 751 753 755 757 759 761 762 763 765 767
710 709 708 709 709 709 709 708 708 708 708 707 707 707 706 706 706 705 705 705 705 706 706 706 706 707 707 707 707 708 708 708 708 708 708 708 709 709 708 709 709 710 710 711 711 712 713 713 713 713 713 713 713 713 713 713 715 716 717 718 720 721 722 723 724 725 726 727 729 731 733 735 738 741 744 748 751 753 755 757 759 761 763 764 766 768
708 708 707 707 708 708 708 708 707 707 707 707 706 706 705 705 705 704 704 704 704 704 704 705 705 705 705 706 706 706 707 707 707 707 707 707 707 707 707 707 708 708 708 709 710 711 711 711 710 710 711 712 713 713 713 713 714 715 716 718 720 721 722 723 723 725 726 727 728 730 733 734 737 739 742 745 748 750 752 754 757 759 761 763 766 768
707 706 706 706 706 707 707 707 707 706 706 706 705 705 705 704 704 703 703 703 703 703 703 703 704 704 704 705 705 705 705 705 705 705 705 705 705 705 705 706 706 707 708 708 709 710 710 709 709 709 709 710 711 712 713 713 713 714 716 718 720 721 722 723 724 725 726 727 728 730 732 734 736 738 740 742 744 746 748 751 753 755 757 759 762 766
706 705 705 705 705 705 705 706 706 706 705 705 705 704 704 703 703 703 703 703 703 703 703 703 703 703 703 703 704 704 704 704 704 704 704 704 704 704 704 705 705 706 707 707 708 708 709 709 709 709 709 709 710 711 712 713 713 714 715 717 718 720 721 723 724 725 726 728 729 730 732 733 735 738 739 742 743 745 746 748 751 753 756 757 759 762
704 704 704 704 704 704 705 705 705 705 705 704 704 703 703 703 702 702 702 702 702 702 702 702 702 702 702 703 703 703 703 703 703 703 703 703 703 703 703 704 704 705 706 707 707 708 708 708 708 708 708 709 710 711 712 713 714 715 716 716 718 720 722 724 725 725 727 728 730 731 733 734 736 738 739 742 743 745 746 748 750 752 755 757 759 762
703 703 703 703 703 703 704 704 704 704 704 704 703 703 702 702 701 701 701 701 701 701 701 701 701 701 701 702 702 702 702 702 702 702 702 702 702 703 703 703 704 705 705 706 707 707 708 708 708 708 708 708 709 710 712 713 715 716 716 716 717 719 722 724 725 726 727 728 730 732 733 735 736 738 740 742 743 745 746 748 750 752 755 758 761 763
703 703 702 702 702 702 703 703 703 703 703 703 702 702 701 701 701 700 700 700 700 700 700 700 700 700 701 701 702 702 702 702 702 702 702 702 702 702 703 703 704 704 705 706 706 707 707 708 708 708 708 709 709 710 711 713 714 716 716 717 717 718 719 721 723 725 727 729 730 732 733 735 737 739 741 743 744 745 746 748 750 753 756 758 761 763
702 702 701 701 701 701 701 701 701 702 702 702 701 701 701 700 700 700 700 700 700 700 700 700 700 700 701 701 701 701 702 702 702 702 702 702 702 702 703 703 703 704 705 705 706 706 707 707 708 708 709 709 710 711 712 713 714 715 717 718 718 719 720 721 722 724 726 728 730 732 733 735 737 738 741 743 745 746 747 749 751 753 756 759 762 764
701 700 700 700 700 700 700 700 700 701 701 701 701 700 700 700 699 699 699 699 699 699 699 699 700 700 700 700 701 701 701 701 701 701 701 702 702 702 702 703 703 704 704 705 706 707 707 707 707 708 709 710 711 712 712 713 714 715 717 718 719 720 721 723 723 724 725 727 729 731 733 734 736 738 741 743 746 748 750 751 753 754 757 759 762 764
699 699 699 698 698 698 699 699 699 700 700 700 700 700 699 699 699 698 698 698 698 699 699 699 699 700 700 700 701 701 701 701 701 701 701 701 701 702 702 702 703 703 704 705 706 707 707 708 708 708 708 709 711 712 713 714 714 715 716 717 718 720 721 723 724 725 726 727 728 730 732 734 736 739 742 745 748 750 753 754 755 756 758 759 762 764
698 698 698 698 698 698 698 698 698 699 699 699 699 699 699 698 698 698 698 698 698 698 698 699 699 699 700 700 700 700 700 700 700 700 700 701 701 702 702 702 703 703 704 705 706 706 707 708 709 709 709 709 710 711 713 714 715 716 716 717 718 719 721 723 724 725 727 728 728 729 731 733 736 739 742 746 749 752 754 756 757 758 759 761 762 764
697 697 697 697 697 697 697 697 698 698 698 698 698 698 698 698 698 698 697 697 697 698 698 698 698 699 699 700 700 700 700 700 700 699 700 700 701 701 702 702 703 703 704 705 706 707 708 708 709 710 710 711 711 711 712 713 715 716 717 718 719 720 721 723 724 725 727 728 729 730 732 733 735 738 741 745 749 752 754 756 758 759 761 762 763 765
696 696 696 696 695 695 696 696 697 697 698 698 698 698 698 698 697 697 697 697 697 697 697 698 698 698 699 699 700 700 700 700 699 699 699 700 701 701 702 702 702 703 704 706 707 708 708 709 710 710 710 711 712 712 713 713 715 716 718 719 720 720 721 723 724 725 726 727 729 731 733 735 738 740 743 745 748 751 754 756 758 759 761 762 764 765
694 694 694 694 694 694 695 695 695 696 697 697 697 697 697 697 697 697 697 697 696 697 697 697 698 698 698 699 699 699 700 699 699 699 699 700 700 701 701 702 702 703 704 706 708 708 709 711 712 712 712 712 712 713 714 714 715 716 718 719 720 721 722 723 724 725 726 728 729 731 734 736 739 741 743 746 748 751 753 756 757 759 760 762 764 765
Wind_Speed
23 24 24 24 23 23 23 24 23 22 23 24 25 27 28 28 27 26 25 25 28 31 35 37 35 36 42 48 51 52 53 54 55 56 56 56 55 54 53 52 50 49 48 47 47 47 46 45 44 44 43 43 43 43 43 42 42 41 40 38 39 42 44 45 45 42 40 38 39 41 43 44 44 44 44 44 43 42 41 41 40 39 39 38 38 37
20 21 21 21 21 22 22 24 24 24 24 25 26 27 29 29 30 29 28 27 28 29 32 34 34 34 37 43 49 53 54 55 56 57 58 58 57 56 55 53 50 48 47 47 48 48 48 47 46 45 45 44 43 43 43 42 42 41 40 38 38 39 42 45 45 44 42 40 39 40 43 45 45 45 45 45 44 43 42 42 41 40 40 39 38 38
19 19 20 21 21 22 22 23 25 25 26 27 27 28 29 29 30 31 31 31 31 31 33 34 35 35 35 38 43 49 54 56 58 59 60 60 59 58 56 54 52 49 47 47 48 49 49 49 48 47 46 45 45 44 43 43 42 41 40 39 38 38 40 43 45 45 44 41 40 40 43 45 46 47 46 46 45 44 43 43 42 42 41 40 39 39
16 18 19 20 22 23 24 24 25 27 28 29 29 30 30 30 31 32 33 33 33 35 36 37 37 36 35 35 37 42 49 54 57 59 60 60 60 59 57 56 54 51 48 47 48 49 49 49 49 49 48 47 46 45 44 43 42 41 40 39 38 38 38 40 42 43 43 42 41 41 43 45 47 48 47 47 46 46 45 44 44 43 42 41 40 39
10 14 17 18 20 22 25 25 26 27 28 29 30 31 32 32 32 33 34 34 35 37 38 38 37 36 36 35 35 37 42 47 52 55 56 58 59 59 58 57 55 53 50 48 48 48 49 49 50 50 49 49 48 47 45 44 43 41 40 40 40 39 39 39 40 41 42 42 42 43 44 46 48 48 48 48 48 48 48 47 45 44 43 42 40 39
9 11 14 16 18 20 23 24 25 25 26 27 28 30 31 33 33 33 33 34 36 38 39 38 35 34 36 36 35 35 36 41 46 50 52 53 55 57 58 58 57 55 52 50 49 49 49 50 50 50 50 50 49 48 47 46 44 42 41 41 41 41 40 40 40 40 41 42 44 45 46 48 49 49 49 49 50 50 49 48 47 45 44 42 41 39
11 12 12 15 18 19 21 22 22 23 23 24 25 27 29 30 31 32 33 34 36 37 38 38 36 34 35 36 36 34 33 35 40 45 49 50 51 53 56 58 58 56 54 52 51 50 50 50 51 51 51 51 51 50 49 47 46 44 43 42 42 41 41 41 41 41 42 43 45 46 48 48 49 49 49 50 51 52 51 49 47 45 44 43 41 39
11 12 12 14 17 18 20 21 22 22 22 22 22 22 24 26 27 28 31 33 35 36 36 36 35 35 35 37 37 35 32 32 34 39 44 46 48 49 50 53 55 56 55 54 53 52 52 51 51 51 51 51 51 50 49 48 47 46 45 44 43 42 42 42 42 42 42 43 44 45 46 47 48 48 50 51 53 53 52 49 47 45 44 43 42 40
11 12 12 14 15 17 17 19 21 22 22 22 21 20 20 21 23 24 26 28 31 34 34 34 34 35 36 37 37 36 33 31 32 34 38 41 44 45 46 47 49 51 52 53 53 54 53 52 51 51 50 50 50 49 48 47 47 47 47 45 44 43 42 42 42 41 41 41 42 43 44 45 46 48 50 53 55 54 51 48 46 45 45 44 43 41
11 12 12 13 14 16 16 17 20 22 22 22 22 22 21 20 20 20 21 23 26 30 33 34 35 35 36 37 37 36 35 33 32 33 35 38 40 42 44 45 45 46 47 49 50 51 51 51 50 49 49 49 49 48 47 47 47 48 47 46 44 43 42 42 42 41 41 41 41 42 42 44 46 49 51 54 55 54 51 48 46 46 45 45 44 43
11 11 11 12 13 14 16 16 18 19 20 21 22 22 22 22 20 19 18 19 21 25 29 33 35 36 36 36 36 36 36 35 34 34 34 35 37 40 43 45 45 45 45 46 47 48 48 47 47 47 47 48 48 48 47 47 48 48 47 45 43 43 43 42 42 42 42 43 42 41 41 42 46 50 53 55 55 52 49 47 46 46 46 46 46 45
10 11 10 10 10 11 13 14 15 16 17 17 17 17 19 21 21 20 19 18 19 21 24 29 33 36 36 35 35 36 36 36 36 35 35 34 34 36 40 42 44 45 46 47 47 46 46 45 45 45 46 47 48 48 47 47 48 48 46 44 43 42 43 43 43 43 43 43 42 40 39 40 44 49 53 54 53 50 48 47 47 47 47 48 47 47
10 10 10 9 9 9 10 11 12 12 13 14 14 14 16 18 20 21 20 20 20 21 22 24 27 31 34 36 36 36 36 35 36 36 35 34 34 34 36 38 40 42 44 46 47 48 47 46 45 45 46 47 47 47 46 47 47 47 46 44 43 43 43 43 43 42 42 42 42 40 38 38 42 46 50 52 51 49 47 47 48 48 49 49 49 48
10 10 9 9 8 8 9 10 10 11 12 14 15 16 16 17 18 19 19 20 20 21 21 21 22 24 28 32 35 37 37 36 35 35 34 34 34 34 35 36 37 38 40 42 45 47 47 46 45 45 45 46 46 45 45 46 47 47 46 44 43 43 43 43 42 41 40 40 40 40 38 37 39 43 47 49 48 48 47 48 48 49 50 50 49 48
8 8 7 8 8 9 9 10 11 12 13 15 16 16 16 16 16 17 17 17 18 18 19 19 20 21 23 26 30 34 36 36 35 33 33 34 35 35 35 35 35 35 35 37 40 43 45 45 44 43 44 44 44 44 44 45 45 45 45 43 43 43 43 42 41 40 38 38 39 39 38 37 38 41 44 46 47 47 47 48 48 49 50 50 50 48
8 7 6 7 8 9 10 10 11 12 14 14 15 15 14 14 15 16 17 17 16 15 15 15 14 15 18 22 26 29 32 34 34 33 32 33 36 37 36 36 34 33 33 34 36 39 41 42 42 42 43 44 44 44 44 44 43 43 43 42 41 42 41 41 40 39 38 37 37 37 36 36 37 39 42 44 46 47 47 48 48 49 50 51 51 50
9 8 7 7 8 10 11 11 12 13 13 14 15 15 14 14 14 14 15 16 15 14 14 13 8 5 8 15 22 27 29 31 31 31 31 32 35 38 39 37 35 33 32 31 33 35 38 39 40 41 42 44 45 45 44 43 43 42 41 41 41 41 41 40 40 40 40 39 38 37 36 36 37 38 40 43 45 46 47 47 48 49 50 52 52 52
9 9 8 8 9 10 11 11 12 12 13 13 14 15 16 15 15 14 15 15 14 13 13 14 11 6 4 7 15 25 29 30 29 28 27 29 33 37 40 39 37 35 33 32 32 33 35 37 38 40 41 43 45 45 45 44 44 43 42 42 41 41 41 41 40 41 41 41 41 40 40 39 38 38 39 41 43 44 45 46 47 48 50 52 53 54
11 10 10 10 10 11 12 12 11 11 11 12 13 14 15 16 16 16 15 15 14 14 13 13 13 13 13 12 17 24 29 31 29 26 23 24 29 34 38 38 38 36 35 35 35 34 34 36 37 39 40 42 44 45 46 46 45 45 44 44 43 43 43 42 42 42 42 42 43 43 43 43 42 41 41 41 41 42 43 43 45 47 50 53 55 55
12 12 12 11 11 12 12 12 11 10 10 11 11 12 14 15 16 16 16 15 15 15 15 14 15 15 15 15 16 20 26 30 29 25 22 22 25 30 35 36 36 36 36 37 37 37 36 36 37 38 39 41 42 44 45 46 47 47 47 46 46 45 45 44 44 44 44 44 44 45 46 46 46 45 45 43 42 42 42 42 43 46 50 54 56 56
14 15 15 14 12 11 11 11 12 11 11 11 11 12 12 13 14 15 16 16 16 15 15 14 15 16 16 15 15 17 22 27 28 24 20 20 22 26 31 34 35 35 35 37 39 39 38 38 38 39 39 40 41 43 44 46 47 48 48 48 47 47 46 46 46 46 46 46 46 47 48 48 48 48 47 46 45 44 43 43 44 46 50 54 56 57
17 18 18 16 14 14 14 15 15 14 13 13 13 12 11 11 12 14 15 16 16 16 16 15 15 15 15 14 15 16 18 25 27 24 18 15 17 22 28 32 34 34 33 35 38 39 39 39 39 40 41 41 42 43 44 45 47 48 48 49 49 48 48 47 47 47 47 48 48 49 49 49 49 49 49 48 47 46 45 45 46 48 51 53 55 58
19 20 20 18 17 17 16 16 15 14 13 13 14 14 13 12 12 13 13 15 16 17 18 18 17 17 16 16 15 15 17 21 25 25 18 12 13 18 24 29 31 31 31 33 35 37 38 39 40 40 41 42 42 43 44 45 46 47 48 49 49 50 49 49 49 48 48 49 49 50 50 50 50 49 49 49 49 48 48 48 49 50 53 54 55 57
17 18 18 18 17 16 16 16 15 14 13 14 15 16 17 16 16 15 15 15 16 17 18 18 19 19 19 18 17 16 17 19 22 23 20 15 14 16 19 24 27 28 29 31 32 34 36 38 40 41 42 43 43 44 44 45 46 47 48 49 50 50 51 51 50 50 50 50 51 51 51 51 51 50 50 50 50 50 50 50 51 53 55 56 57 58
16 16 17 16 15 15 15 15 15 14 14 14 15 16 17 18 18 17 17 17 16 16 16 15 15 15 17 18 17 17 18 19 21 22 19 15 15 16 16 20 24 26 27 29 30 31 32 35 38 40 42 43 44 44 44 45 45 46 47 48 49 50 51 52 52 52 52 52 53 53 53 53 52 52 51 51 52 52 52 52 53 55 57 58 59 59
15 16 16 16 15 15 15 15 15 14 14 14 15 15 16 17 17 17 17 17 16 15 13 12 11 13 15 15 15 17 19 20 22 23 20 16 14 15 15 19 23 25 25 26 28 29 30 32 36 39 41 42 43 44 44 44 44 45 46 47 48 49 50 51 52 52 53 54 54 54 54 53 53 53 53 53 53 54 54 54 54 56 57 58 59 59
15 15 16 15 15 15 15 15 15 14 14 14 14 14 15 14 14 14 15 16 15 14 12 10 8 9 12 12 14 16 18 20 23 24 23 19 14 12 15 19 22 24 24 25 27 29 30 32 35 37 40 42 43 44 44 44 44 44 45 45 46 46 47 49 50 51 52 53 54 53 53 53 53 53 54 54 54 54 54 54 55 56 57 58 57 56
15 15 15 15 15 15 15 15 15 14 14 14 13 13 13 13 12 12 13 14 14 14 13 11 7 6 7 9 12 15 16 19 23 25 25 21 14 11 14 17 21 22 23 23 26 29 31 32 34 37 39 41 43 44 45 45 45 45 45 45 45 45 45 46 47 49 51 52 52 51 51 51 51 52 52 53 53 53 53 54 56 56 57 57 55 53
15 15 15 15 14 14 14 14 14 14 13 13 13 13 13 13 13 14 14 14 13 13 14 13 11 9 9 10 10 12 14 19 22 25 26 20 15 13 14 15 19 22 22 19 20 24 27 29 32 34 36 39 41 42 44 45 45 45 46 45 45 44 43 43 44 46 48 49 49 48 48 49 50 50 51 52 52 52 52 54 55 55 55 55 52 50
15 15 15 14 14 13 13 14 13 13 12 12 12 12 12 13 14 14 15 14 14 14 13 12 12 12 11 8 5 6 10 17 21 23 25 20 15 12 13 14 17 21 21 15 9 8 14 22 28 31 34 36 38 39 41 42 43 43 44 44 43 43 42 41 42 42 43 44 45 45 45 46 47 48 49 50 51 52 52 53 53 53 52 51 48 46
14 14 14 14 13 13 13 13 12 12 11 11 11 11 12 12 12 13 13 14 15 15 14 13 13 13 12 6 1 2 5 10 16 21 23 21 16 14 14 14 16 20 21 17 7 0 3 10 18 26 32 34 35 37 38 39 40 40 41 41 42 42 42 41 40 39 39 39 40 41 42 44 45 47 48 49 50 51 52 53 52 51 50 48 45 43
14 14 14 14 13 13 12 12 12 11 11 11 11 11 11 12 12 12 12 14 15 15 15 14 15 15 14 11 7 4 4 5 10 16 20 20 17 16 16 15 16 18 22 22 15 6 3 3 7 16 25 30 32 34 35 36 36 37 38 38 39 40 42 41 39 37 37 37 38 38 40 42 44 46 47 49 50 51 52 53 52 51 49 47 44 43
14 14 14 14 14 13 13 12 12 12 12 11 11 11 11 11 12 12 12 13 15 16 16 15 15 15 15 15 14 12 10 8 10 13 17 18 16 14 15 16 16 18 20 23 20 13 6 5 5 7 15 23 28 31 33 33 33 33 34 35 36 37 39 39 38 37 37 37 37 38 39 41 44 46 48 48 50 51 52 53 53 52 50 48 46 44
15 15 15 15 14 14 13 13 13 13 13 13 12 12 11 11 11 12 12 13 14 15 16 16 16 15 15 14 15 16 16 15 14 14 14 16 16 15 15 16 17 18 18 19 18 14 7 7 5 4 6 15 21 26 29 30 31 31 31 32 33 35 37 37 37 37 37 36 36 36 37 40 42 45 47 48 50 51 52 53 53 52 51 49 47 45
16 15 15 15 15 14 14 14 14 14 14 14 13 13 12 11 10 10 11 12 12 13 14 15 16 16 16 15 14 15 16 17 17 16 15 16 17 17 16 18 19 18 17 16 15 12 8 7 7 6 4 8 13 19 24 27 28 29 30 31 32 34 36 37 38 37 36 35 35 35 37 39 41 43 45 47 49 51 52 52 51 50 49 49 48 47
16 16 16 16 15 15 15 15 15 15 15 14 14 13 12 11 10 9 10 10 11 12 12 13 14 15 17 17 17 17 17 18 18 18 17 17 18 18 17 18 19 19 17 17 16 14 12 10 9 8 6 6 7 10 16 22 26 27 28 29 31 33 35 36 37 37 36 35 35 36 37 39 41 42 44 46 48 49 50 50 48 47 46 46 46 46
16 16 16 16 16 16 16 16 16 16 15 15 14 13 12 11 10 10 10 10 10 10 11 12 13 14 16 17 19 19 19 19 19 18 18 17 17 18 19 18 19 20 20 18 17 17 16 12 9 8 8 7 6 7 10 17 21 22 24 26 28 29 30 32 35 36 36 36 36 37 39 40 42 43 44 46 47 47 47 45 44 43 43 42 42 42
15 16 17 17 17 17 17 17 17 17 17 16 15 13 12 11 10 10 10 10 10 10 10 11 12 13 15 16 18 19 19 19 19 18 18 17 16 18 20 19 20 21 22 21 20 19 17 12 7 6 7 7 7 8 11 15 17 19 20 22 24 26 26 28 31 33 35 35 37 38 40 41 42 43 43 44 45 44 43 41 39 39 39 39 39 38
16 16 17 18 18 17 17 18 18 18 17 16 14 13 12 11 11 10 10 10 10 10 10 11 11 12 14 15 17 18 18 19 19 18 17 16 16 17 20 20 20 21 23 23 22 20 19 15 12 9 8 7 7 9 12 16 18 19 19 20 20 22 24 26 29 31 32 34 35 37 39 40 41 42 43 44 44 43 41 39 38 37 38 37 35 34
16 17 17 18 18 18 18 18 18 18 16 15 14 13 12 11 11 11 11 10 10 10 10 10 11 12 13 14 15 16 17 17 18 17 17 16 16 16 19 21 22 21 21 22 22 21 19 17 16 15 15 12 10 10 12 15 18 20 21 18 16 17 21 25 28 29 31 32 33 34 35 38 40 41 42 43 43 42 41 39 38 38 39 38 36 33
16 17 17 18 18 18 18 18 17 17 16 15 14 13 13 12 11 11 11 11 10 10 10 10 10 11 12 13 14 15 15 16 16 16 16 15 15 16 18 21 22 21 20 20 21 21 20 18 16 15 15 14 13 13 14 15 18 21 22 19 17 18 22 25 27 28 29 30 31 33 34 36 38 39 39 39 39 39 40 38 37 37 38 39 38 36
16 17 17 17 18 18 18 17 17 17 16 15 14 13 13 12 12 12 11 11 11 11 10 10 10 10 11 11 12 13 14 14 14 14 14 14 14 16 19 21 21 20 19 19 19 20 19 18 16 14 14 15 14 13 13 15 18 19 20 20 20 21 22 23 25 27 28 28 29 30 31 33 34 35 35 35 35 35 36 36 36 36 35 36 36 36
17 17 18 18 18 18 18 18 17 17 16 15 15 14 14 13 12 12 12 12 12 11 11 11 10 10 10 10 10 11 11 12 12 12 12 13 14 16 18 19 19 18 17 17 18 18 18 17 16 15 16 17 17 16 15 15 16 17 18 21 22 21 17 19 23 26 28 28 28 29 30 31 31 32 32 31 31 32 33 33 34 34 33 32 32 32
18 18 18 19 19 18 18 18 17 17 16 16 15 15 14 13 13 12 12 12 12 12 11 11 10 10 9 9 9 9 9 10 10 11 11 12 13 15 16 17 17 16 16 17 17 16 15 15 14 14 15 17 18 18 17 17 17 17 18 21 23 22 19 21 25 28 28 28 28 29 29 29 29 29 29 29 29 30 31 32 32 32 32 32 31 31
18 18 18 18 18 18 18 17 17 17 16 16 16 15 15 14 13 13 12 12 13 12 12 11 10 9 8 8 9 9 9 8 9 10 10 11 12 13 14 14 14 14 15 16 16 16 15 14 14 14 15 17 17 18 18 18 18 18 19 20 21 21 21 26 29 30 29 29 29 29 30 30 30 29 28 27 28 28 30 31 31 31 31 31 31 31
19 18 18 18 18 18 18 17 17 17 17 16 16 16 15 15 14 13 13 13 13 13 12 11 10 9 8 9 9 10 9 9 9 9 10 10 11 12 13 13 13 13 14 14 14 15 15 15 16 16 17 16 16 16 17 19 19 19 19 20 20 20 21 25 27 29 30 30 30 31 31 32 31 29 27 26 26 27 28 29 30 30 30 30 30 30
19 19 19 18 18 18 18 17 17 17 17 17 17 16 16 15 15 14 13 13 13 13 13 12 11 10 10 10 11 11 10 10 10 10 10 11 11 12 12 13 13 13 14 13 13 12 13 14 16 18 19 17 15 14 16 18 19 19 20 21 22 22 22 24 26 28 29 30 31 32 34 33 31 28 25 25 25 25 25 27 28 29 30 30 30 30
19 19 18 18 18 17 17 17 17 17 17 17 17 17 16 16 15 14 14 14 14 13 13 12 11 10 10 11 11 11 12 12 12 12 12 12 12 12 13 14 14 14 14 14 14 14 14 14 15 16 17 17 16 16 17 18 19 19 20 22 23 23 23 24 26 27 29 30 32 34 35 34 31 28 26 24 23 22 23 24 25 27 28 29 30 30
19 18 18 18 18 18 18 18 18 17 17 17 17 17 16 16 15 15 15 14 14 14 13 13 11 11 10 10 11 11 12 13 13 14 14 14 14 14 14 14 15 14 14 14 15 15 16 16 16 15 14 14 16 17 18 19 19 20 20 22 22 23 23 24 26 28 29 30 32 34 34 32 31 30 28 25 22 21 21 22 23 25 26 27 28 29
19 19 18 18 18 18 18 18 18 17 17 17 17 17 17 16 16 15 15 15 15 15 14 13 13 12 11 11 11 12 12 13 14 14 15 15 15 16 16 16 16 16 16 15 15 15 14 14 13 14 14 14 15 17 17 19 20 20 20 21 21 22 23 24 26 29 31 32 33 33 32 30 30 29 28 25 23 22 21 21 22 24 25 26 26 27
19 19 19 18 18 18 18 18 18 18 17 17 17 17 16 16 16 15 15 15 15 15 14 14 13 12 12 12 12 13 13 14 14 15 16 16 17 18 18 18 18 17 16 13 11 10 10 8 7 7 10 13 16 16 16 18 20 20 20 20 21 22 23 24 26 29 31 32 33 33 32 30 28 28 27 25 23 21 21 20 22 24 25 26 26 26
Wind_Direction
233 239 242 244 243 242 244 245 243 239 236 236 236 235 235 234 235 238 243 245 243 239 235 231 228 224 220 219 219 220 220 220 220 220 220 220 220 220 220 220 220 219 219 220 220 220 220 220 220 220 220 220 221 221 222 223 225 227 228 228 224 217 211 209 208 208 209 212 214 216 215 213 212 211 211 211 211 211 210 209 208 207 207 206 204 203
225 232 236 238 237 236 238 242 241 237 233 233 234 236 238 238 237 236 237 241 244 243 239 236 234 231 226 222 220 220 220 220 220 220 220 221 221 221 221 221 220 219 219 220 220 220 220 220 221 221 221 221 222 223 223 224 225 226 227 228 225 220 215 212 210 210 210 213 216 217 217 215 213 212 212 212 212 212 211 209 208 207 207 206 205 204
216 220 225 228 229 229 232 236 237 236 233 233 234 236 238 240 239 237 235 237 240 241 239 236 234 233 231 227 223 221 220 220 220 221 221 221 221 221 221 221 221 221 220 219 219 219 220 221 221 222 222 222 222 223 224 224 225 226 226 227 226 224 220 217 214 212 212 214 217 219 219 217 215 213 213 213 213 212 210 209 208 208 207 206 206 205
214 213 216 220 222 225 228 231 234 235 235 235 236 237 237 237 236 236 235 235 236 237 236 233 230 228 228 229 228 226 223 221 220 220 220 220 220 221 221 222 222 222 221 220 218 218 219 220 222 223 223 223 223 223 223 224 224 224 225 226 226 226 225 222 219 216 216 218 220 222 222 220 217 216 215 215 214 213 211 209 208 207 207 207 206 205
236 225 221 219 220 224 228 232 233 234 235 236 236 236 235 234 233 233 233 233 234 233 233 230 227 224 223 224 227 229 228 225 223 220 219 219 220 221 221 222 223 223 223 222 220 218 218 220 222 223 224 224 223 223 223 223 223 224 224 225 226 226 225 225 223 222 222 222 224 225 225 223 220 218 218 216 215 214 211 210 208 208 207 207 207 206
288 261 243 232 227 228 231 233 233 233 233 234 233 233 231 230 229 228 228 228 229 229 229 227 225 223 221 221 223 226 229 228 226 224 221 219 219 220 222 223 224 225 225 224 222 221 220 220 222 223 224 224 224 224 223 223 223 223 225 226 226 226 225 225 224 224 225 225 225 225 225 223 221 219 218 216 214 212 210 209 208 207 208 208 207 206
309 293 269 249 240 237 235 234 233 231 229 229 229 229 227 226 224 223 222 223 224 225 225 224 224 223 222 221 221 223 227 229 228 227 225 223 221 221 222 223 225 226 226 226 225 223 222 222 223 224 224 224 224 224 224 224 224 224 225 226 227 226 225 224 224 224 225 225 224 224 223 222 220 219 217 215 212 209 208 207 207 208 208 208 207 207
312 302 283 261 248 243 239 236 233 231 228 226 226 226 226 226 225 222 221 220 221 221 221 221 222 223 224 222 221 222 224 227 229 229 228 226 225 223 223 223 224 226 226 226 226 225 225 225 225 226 226 225 225 224 225 225 226 225 226 227 227 227 226 225 224 224 225 225 225 224 223 221 221 220 219 215 211 208 207 207 208 208 209 209 208 207
314 304 290 270 254 246 244 240 236 232 229 227 226 226 227 228 229 227 224 222 220 220 219 219 220 223 224 223 222 222 223 225 227 229 230 229 227 225 224 224 224 224 224 225 225 225 225 225 226 227 227 227 226 225 226 227 227 227 226 226 226 226 225 225 224 224 226 228 228 227 224 223 223 222 220 215 211 208 207 208 209 210 210 210 208 207
321 310 296 279 262 250 246 245 241 237 233 230 229 228 228 227 228 229 229 226 222 220 218 218 219 221 223 224 224 223 223 224 226 229 231 232 231 228 226 225 224 224 224 223 224 224 224 225 225 226 227 227 227 227 228 228 228 227 226 225 224 224 224 223 224 224 227 230 230 229 226 224 224 223 220 215 211 208 209 210 212 212 212 211 210 208
326 319 305 287 271 258 249 247 246 243 238 235 233 232 230 228 226 225 226 226 223 219 217 217 218 219 220 222 223 223 223 223 225 227 230 233 234 233 231 229 228 227 226 225 225 224 224 224 225 226 227 228 229 229 229 228 227 226 225 223 222 222 223 223 224 225 228 230 230 228 225 224 223 221 217 213 210 209 210 213 214 214 214 213 212 209
323 322 313 297 279 263 253 249 248 246 241 235 233 233 232 229 225 223 223 223 222 218 216 216 217 218 219 220 221 221 221 221 222 224 227 231 233 234 234 234 233 232 231 230 229 227 227 227 228 229 230 230 230 230 229 228 226 225 223 222 221 222 223 224 225 227 229 231 229 226 223 222 221 219 215 212 210 211 213 215 216 216 216 215 213 210
322 323 318 304 287 270 257 251 249 245 238 231 228 229 230 227 224 222 223 224 223 220 217 216 217 218 219 220 220 219 219 218 220 222 224 227 229 232 234 235 236 236 235 234 233 231 230 231 232 234 234 233 231 230 229 227 225 223 222 221 221 222 224 225 227 228 230 230 228 224 222 221 220 218 215 213 212 214 216 218 218 218 217 215 213 209
319 322 319 309 296 280 265 252 246 241 234 230 229 230 231 229 224 221 221 224 225 223 220 219 219 218 216 216 218 218 217 216 217 219 221 224 226 228 230 233 235 236 236 235 234 233 233 233 234 235 235 233 231 229 227 225 224 222 220 220 221 223 224 225 226 227 228 228 226 222 220 220 219 218 216 215 215 217 219 219 219 218 217 214 211 207
310 315 314 307 299 290 275 260 249 243 240 237 236 237 237 236 229 222 220 222 223 221 219 219 221 222 219 215 213 214 214 213 213 214 217 221 224 226 227 229 232 233 233 232 232 233 233 234 234 234 233 231 229 228 226 224 223 221 220 220 221 222 223 224 224 224 224 224 222 220 219 218 218 217 216 216 217 218 219 220 220 219 217 213 210 206
299 302 300 298 295 291 284 273 261 252 249 245 243 243 244 242 234 226 222 222 221 216 212 213 219 225 226 220 215 211 210 209 209 211 213 217 221 224 225 225 227 230 231 230 229 230 232 233 233 233 231 229 228 227 225 224 223 222 220 220 221 222 223 223 222 221 220 219 219 218 218 218 218 218 217 218 219 219 220 220 220 219 216 213 209 207
290 289 287 287 287 288 290 285 275 264 257 252 248 245 244 244 240 234 229 226 222 216 209 207 208 219 227 225 220 214 209 207 207 209 210 213 218 222 222 221 223 225 228 228 228 228 229 230 231 231 230 229 228 226 225 224 223 222 221 222 222 223 223 223 222 221 219 218 217 217 217 217 218 218 219 219 219 220 220 220 220 219 217 214 210 208
281 279 278 277 279 283 289 290 285 276 266 258 252 249 247 246 245 242 237 232 227 221 214 211 211 213 210 215 220 217 211 207 207 208 208 211 215 219 220 219 220 223 227 229 229 229 228 229 229 230 230 229 228 227 226 225 224 223 223 223 223 223 224 224 224 223 223 221 220 218 217 217 218 219 219 220 220 220 221 221 221 220 218 215 212 209
277 274 271 270 274 280 284 286 287 284 276 266 258 254 250 249 249 248 245 240 234 228 222 218 218 220 221 223 222 218 213 209 208 208 208 210 213 216 217 217 218 221 225 228 231 231 230 230 230 230 230 230 229 228 227 226 225 225 224 224 223 224 225 225 226 226 226 226 225 223 221 219 219 219 220 221 222 222 223 223 224 223 220 217 214 211
275 271 266 267 272 277 280 282 284 284 281 276 270 262 254 250 249 248 247 245 242 237 232 227 225 226 227 228 227 222 216 211 209 210 211 211 212 213 215 214 214 217 222 226 230 232 233 233 232 232 231 230 229 228 228 227 226 226 225 225 224 224 225 226 227 228 228 229 228 227 225 223 222 221 222 223 224 225 226 227 227 226 223 219 215 213
272 270 269 269 269 271 274 276 277 277 277 278 279 276 267 255 248 245 244 244 244 243 240 237 234 232 232 234 234 229 220 211 209 211 215 215 214 214 213 212 212 214 218 223 227 231 233 234 234 234 233 232 231 230 229 228 228 227 227 226 225 225 224 225 226 228 229 230 230 230 229 227 226 225 225 226 227 228 229 229 229 227 223 219 216 214
268 270 272 271 268 266 268 272 274 275 274 274 276 279 277 267 255 248 245 243 243 243 243 243 241 239 237 239 239 236 227 215 210 211 217 219 218 215 213 211 211 212 215 220 224 227 230 233 235 236 237 236 234 233 231 230 230 229 228 227 227 226 225 225 226 227 229 230 231 231 231 230 229 229 229 229 230 230 231 231 231 228 223 218 215 213
265 268 272 272 270 269 269 271 272 272 271 269 266 264 265 265 265 262 257 250 247 246 247 247 247 245 242 240 240 238 233 223 215 213 216 223 223 218 214 211 210 211 215 217 220 223 227 230 234 236 238 238 237 236 234 233 232 231 230 230 229 228 227 226 226 227 228 229 230 231 232 231 231 230 230 231 231 232 232 232 231 228 223 218 214 212
267 269 272 272 272 270 269 268 268 268 267 265 262 259 257 257 260 264 266 262 256 252 251 250 250 250 248 246 243 240 234 227 218 214 217 225 229 224 217 212 210 211 216 218 219 221 224 227 231 235 237 239 239 238 237 236 235 234 233 232 231 230 229 228 227 227 228 229 230 231 231 232 231 231 231 231 231 231 231 231 229 226 222 218 214 211
274 275 275 275 273 270 267 265 265 265 264 262 261 259 257 256 256 257 260 262 261 259 255 253 251 250 250 249 247 242 235 228 217 213 217 226 231 231 226 217 212 212 218 221 221 221 223 225 229 232 235 237 238 238 238 237 236 236 235 234 233 232 231 230 229 228 228 229 229 230 230 231 231 231 230 231 231 231 230 228 226 223 219 216 213 210
278 279 279 277 274 270 266 263 262 261 260 258 257 256 254 253 254 255 259 261 262 259 254 251 248 246 246 246 244 240 235 228 218 213 216 223 230 233 231 226 218 216 220 223 225 224 224 226 228 231 233 235 236 237 237 237 237 237 236 236 235 234 233 232 231 231 230 230 230 230 230 230 230 231 230 230 230 229 228 225 222 218 216 213 210 207
278 279 278 276 273 269 265 261 258 256 254 253 252 250 248 247 249 254 258 258 256 252 245 243 245 246 244 241 239 237 234 228 221 216 215 219 227 234 232 228 224 221 221 224 227 227 226 227 229 232 233 235 236 237 238 238 238 238 238 237 237 236 236 235 234 233 233 233 232 232 232 231 231 231 231 229 228 227 225 221 218 214 212 208 205 202
277 278 277 275 271 268 264 260 256 253 250 248 246 243 239 238 242 247 250 249 248 244 238 238 241 243 242 240 240 239 235 228 223 218 215 215 223 236 233 228 224 221 219 223 227 228 228 228 229 231 232 234 235 236 237 238 239 239 239 239 238 238 238 237 236 235 235 235 235 235 235 234 233 232 231 229 227 225 222 217 213 210 207 202 199 197
277 278 277 275 271 268 264 260 256 252 248 244 239 234 231 231 235 239 242 245 244 239 236 238 240 243 246 247 247 246 239 231 225 220 215 213 221 232 232 226 220 216 213 215 222 226 226 226 227 228 228 229 230 231 233 235 236 237 238 238 238 238 237 236 236 235 236 237 237 238 237 236 235 233 231 228 225 221 217 211 207 203 200 196 193 192
274 277 278 276 273 268 264 260 257 253 248 242 236 230 227 225 230 237 241 244 242 238 234 238 241 244 246 249 259 260 247 238 231 224 216 213 219 228 226 220 214 209 205 202 207 222 224 225 225 225 224 224 224 225 227 228 230 231 232 233 234 234 235 235 234 234 235 237 238 238 238 237 234 231 227 223 219 215 210 205 200 196 192 190 188 187
275 278 280 279 276 270 265 261 258 253 248 243 237 231 228 224 226 233 239 242 242 239 236 239 241 242 240 235 237 268 252 241 235 228 219 214 218 226 222 214 209 205 201 196 189 49 230 228 226 225 224 223 222 222 222 223 224 224 226 227 228 230 231 232 232 233 234 236 238 239 238 235 231 225 221 216 212 208 203 199 194 190 187 185 183 181
282 283 284 282 279 274 268 263 259 255 250 245 240 235 231 227 226 230 236 241 242 241 240 241 242 242 240 235 231 236 249 241 236 231 224 218 221 227 224 217 210 205 201 199 201 207 207 215 220 221 223 223 223 223 222 221 221 221 222 223 224 226 229 229 230 231 232 235 237 238 236 232 226 220 215 210 206 202 198 195 190 187 184 181 178 176
286 287 287 285 281 275 268 263 258 254 250 246 242 239 235 232 230 230 235 240 243 244 243 244 244 244 245 244 244 246 251 252 247 239 230 223 223 227 227 222 215 208 204 203 207 213 214 202 193 203 215 219 222 224 224 224 223 222 222 222 223 225 227 227 227 228 229 231 232 232 230 226 221 215 210 205 201 198 194 191 188 185 182 179 176 174
287 288 288 285 280 273 267 261 255 251 249 246 244 242 238 236 234 234 236 240 244 245 246 247 247 246 247 249 251 251 251 253 252 248 240 229 225 226 228 223 217 210 205 208 212 218 223 210 194 184 202 211 217 222 225 227 228 227 227 226 226 226 227 226 225 225 225 225 223 220 218 215 212 208 204 200 196 193 191 188 186 183 181 179 176 173
284 284 282 278 273 268 263 257 252 248 246 245 245 244 243 241 240 240 241 243 244 246 248 249 251 251 249 249 251 253 253 254 254 252 248 237 229 228 230 226 220 213 207 210 215 219 225 220 210 198 180 194 209 219 223 226 228 229 229 229 228 227 227 226 224 221 218 216 212 208 205 202 199 197 195 192 190 188 186 184 183 182 181 179 177 175
277 276 273 270 266 261 257 254 251 248 246 246 247 248 248 248 247 247 247 248 248 249 251 252 254 255 254 252 252 253 256 257 257 255 252 244 235 229 229 230 226 220 214 214 216 219 223 224 219 208 190 176 188 208 217 220 222 223 224 224 223 223 223 222 219 215 209 204 200 196 193 191 189 187 186 185 184 182 181 181 180 180 180 180 179 178
269 268 266 264 261 257 254 253 251 249 248 249 250 251 252 252 252 253 253 253 253 254 255 257 258 259 258 256 255 255 256 257 257 256 254 251 243 235 230 233 233 227 220 219 220 222 224 223 216 207 202 190 181 183 194 204 208 211 213 214 214 213 213 213 210 205 199 194 189 187 185 183 182 181 180 179 179 178 178 178 179 179 179 179 179 178
262 261 260 260 258 256 255 253 252 252 252 252 252 253 254 254 254 254 254 255 255 256 258 260 261 261 260 259 258 257 256 256 256 256 255 254 249 241 234 235 236 233 228 225 223 223 221 217 208 201 207 204 193 181 178 182 187 192 197 201 202 201 200 198 196 192 188 184 181 180 179 178 177 175 175 174 174 173 173 174 175 176 177 177 176 176
256 256 256 256 255 253 253 253 253 254 254 254 254 254 255 254 254 254 254 254 254 255 256 257 258 258 259 260 260 259 258 256 255 255 255 256 253 246 238 234 234 234 232 229 225 223 220 217 214 209 205 203 195 183 177 176 176 177 179 181 184 187 187 185 184 182 180 177 174 173 172 173 172 171 170 170 171 170 170 170 171 173 173 172 171 172
254 254 254 254 253 252 251 253 255 256 256 254 254 253 253 252 252 252 252 251 250 249 250 251 252 255 259 262 263 262 260 258 256 255 255 255 254 249 240 233 231 233 232 228 224 221 219 220 220 217 212 204 192 179 172 171 172 171 168 165 167 171 175 176 176 176 174 172 170 168 168 168 168 168 168 168 169 169 169 169 169 171 172 171 168 166
253 253 254 253 252 252 253 255 257 258 256 254 251 249 248 247 246 246 247 247 245 243 242 243 246 250 256 260 262 262 261 259 257 255 254 253 250 245 239 231 230 231 231 226 222 219 217 219 220 217 210 199 187 179 174 172 171 169 167 167 165 165 167 169 171 171 169 168 167 166 165 165 165 166 166 167 168 169 169 168 168 169 171 172 171 168
253 253 253 252 251 251 252 254 256 256 255 252 248 245 244 244 244 243 242 241 238 237 237 236 237 241 247 253 257 259 258 257 255 253 251 248 244 237 231 228 228 229 229 224 219 217 217 217 216 211 200 188 178 172 171 172 171 170 170 167 161 157 158 164 167 166 164 163 163 163 162 163 162 163 163 163 165 166 167 167 166 167 168 170 172 173
254 254 253 252 251 250 251 252 252 252 252 249 246 244 243 243 243 242 241 238 236 234 235 235 234 234 234 237 243 247 249 249 248 246 244 240 235 230 226 225 226 228 227 220 215 214 216 215 213 208 198 186 176 170 168 167 168 169 169 163 156 150 148 156 161 162 161 160 160 160 160 159 159 159 159 159 160 161 162 163 165 167 168 169 171 173
255 255 253 250 249 248 247 246 247 248 248 246 243 242 241 240 239 239 238 236 235 233 230 229 229 226 220 216 218 223 227 232 235 235 233 231 228 225 223 223 225 226 225 217 210 207 207 207 206 200 191 182 176 171 167 164 164 165 164 162 159 157 157 158 158 158 158 157 157 157 156 155 154 153 153 153 154 155 158 160 163 166 169 171 173 175
255 252 248 245 243 240 238 239 242 244 244 244 242 240 239 237 236 235 233 233 232 229 224 221 215 207 197 198 199 199 200 205 212 217 219 220 219 218 217 217 218 218 216 212 209 204 198 193 189 185 181 177 175 172 167 163 161 160 161 161 161 160 159 157 157 156 155 154 154 154 154 152 150 147 146 147 149 152 157 160 163 166 170 173 176 179
251 246 240 237 234 232 232 235 238 239 239 239 239 238 237 235 234 233 232 231 227 222 218 215 207 197 187 188 188 185 180 181 186 194 200 204 207 209 208 208 206 204 202 202 203 203 200 191 181 173 168 167 168 168 166 164 160 157 157 158 156 153 151 152 154 155 154 153 152 152 153 152 150 146 143 144 148 153 159 164 167 169 172 176 179 183
247 241 235 231 228 227 229 232 233 232 232 233 234 235 234 233 231 229 228 228 223 217 212 209 205 201 198 192 186 180 172 168 168 173 180 186 191 195 196 196 196 194 192 190 188 187 187 185 179 172 165 161 159 161 164 163 161 158 156 155 152 149 148 150 153 154 154 153 152 152 153 152 149 145 144 145 148 154 160 167 171 175 177 180 182 185
243 237 231 227 224 223 224 225 226 226 226 229 231 233 232 231 228 224 221 221 219 214 206 201 200 201 200 195 189 182 175 167 162 162 166 170 175 180 182 183 183 183 183 181 178 173 169 167 167 168 168 166 162 159 158 161 161 159 157 154 152 150 149 151 152 153 153 152 152 153 153 152 149 146 146 146 149 154 160 166 173 178 182 184 186 187
242 235 230 226 222 219 219 220 222 222 223 226 228 229 229 228 225 221 218 217 214 209 202 197 196 195 192 190 187 184 178 169 163 160 160 162 165 167 168 169 168 167 165 164 164 163 161 159 159 160 162 166 165 161 157 158 159 158 156 155 153 151 149 150 151 152 152 152 152 154 155 155 154 153 152 150 151 154 159 166 173 180 185 189 190 191
240 235 229 225 221 219 218 218 219 219 222 225 226 226 225 223 222 220 218 215 211 207 202 200 197 193 188 187 185 182 176 169 162 159 158 161 162 161 159 158 155 150 143 141 142 144 144 144 147 152 155 155 157 158 158 156 154 154 153 154 153 151 149 148 149 151 151 152 153 155 156 156 158 158 157 155 154 156 160 165 172 180 187 191 194 195
236 233 229 225 222 220 218 218 217 218 220 223 225 224 221 217 215 214 214 211 207 204 204 203 200 195 190 188 186 184 180 173 166 161 160 161 162 160 157 155 151 145 136 131 131 132 127 118 116 128 142 147 150 153 155 155 153 150 149 151 152 151 149 148 148 149 151 153 155 157 158 158 158 160 160 157 156 158 161 165 171 178 186 191 194 196